Weather History for KMDJ - May, 2014

Change the Weather History Date:

Saturday, May 3, 2014

  Actual Average Record
Temperature  
Mean Temperature 71 °F -  
Max Temperature 73 °F - - ()
Min Temperature 69 °F - - ()
Cooling Degree Days 6    
Growing Degree Days 21 (Base 50)    
Moisture  
Dew Point 55 °F    
Average Humidity 57    
Maximum Humidity 69    
Minimum Humidity 44    
Precipitation  
Precipitation 0.00 in - - ()
Sea Level Pressure  
Sea Level Pressure 30.11 in    
Wind  
Wind Speed 11 mph (WNW)    
Max Wind Speed 18 mph    
Max Gust Speed 16 mph    
Visibility 10 miles    
Events      
T = Trace of Precipitation, MM = Missing Value Source: NWS Daily Summary

Daily Weather History Graph

Daily Weather History Graph

Search for Another Location

Airport or City:

Trip Planner

Search our weather history database for the weather conditions in past years. The results will help you decide how hot, cold, wet, or windy it might be!

Date:

Astronomy

May. 03, 2014 Rise Set
Actual Time 6:16 AM CDT 7:35 PM CDT
Civil Twilight 5:51 AM CDT 8:00 PM CDT
Nautical Twilight 5:21 AM CDT 8:30 PM CDT
Astronomical Twilight 4:50 AM CDT 9:01 PM CDT
Moon 9:50 AM CDT 11:39 PM CDT
Length of Visible Light 14h 09m
Length of Day
13h 19m
Waxing Crescent, 20% of the Moon is Illuminated
May 3
Waxing Crescent
May 6
First Quarter
May 14
Full
May 21
Last Quarter
May 28
New

Hourly Weather History & Observations

Time (CDT) Temp. Dew Point Humidity Pressure Visibility Wind Dir Wind Speed Gust Speed Precip Events Conditions
12:15 AM 69.8 °F 51.8 °F 53% 30.06 in 10.0 mi WNW 8.1 mph - N/A   Overcast
12:35 AM 69.8 °F 51.8 °F 53% 30.06 in 10.0 mi WNW 9.2 mph - N/A   Overcast
12:55 AM 69.8 °F 51.8 °F 53% 30.05 in 10.0 mi NW 12.7 mph - N/A   Overcast
1:15 AM 69.8 °F 51.8 °F 53% 30.05 in 10.0 mi NW 10.4 mph - N/A   Mostly Cloudy
1:35 AM 69.8 °F 53.6 °F 56% 30.04 in 10.0 mi NW 10.4 mph - N/A   Clear
1:55 AM 69.8 °F 53.6 °F 56% 30.04 in 10.0 mi NW 11.5 mph - N/A   Mostly Cloudy
2:15 AM 69.8 °F 53.6 °F 56% 30.04 in 10.0 mi NW 11.5 mph - N/A   Overcast
2:35 AM 69.8 °F 55.4 °F 60% 30.04 in 10.0 mi WNW 10.4 mph - N/A   Mostly Cloudy
2:55 AM 69.8 °F 51.8 °F 53% 30.04 in 10.0 mi NW 10.4 mph - N/A   Partly Cloudy
3:15 AM 69.8 °F 51.8 °F 53% 30.04 in 10.0 mi NW 11.5 mph - N/A   Clear
3:35 AM 69.8 °F 51.8 °F 53% 30.04 in 10.0 mi NW 11.5 mph - N/A   Clear
3:55 AM 69.8 °F 51.8 °F 53% 30.05 in 10.0 mi NNW 12.7 mph - N/A   Clear
4:15 AM 69.8 °F 51.8 °F 53% 30.05 in 10.0 mi NNW 13.8 mph - N/A   Clear
4:35 AM 69.8 °F 51.8 °F 53% 30.05 in 10.0 mi NNW 12.7 mph - N/A   Clear
4:55 AM 69.8 °F 53.6 °F 56% 30.06 in 10.0 mi NNW 13.8 mph - N/A   Clear
5:15 AM 69.8 °F 51.8 °F 53% 30.05 in 10.0 mi NNW 15.0 mph - N/A   Clear
5:35 AM 69.8 °F 53.6 °F 56% 30.06 in 10.0 mi NNW 16.1 mph - N/A   Clear
5:55 AM 69.8 °F 53.6 °F 56% 30.06 in 10.0 mi NNW 17.3 mph - N/A   Clear
6:15 AM 69.8 °F 53.6 °F 56% 30.07 in 10.0 mi NNW 18.4 mph - N/A   Clear
6:35 AM 69.8 °F 53.6 °F 56% 30.08 in 10.0 mi NNW 18.4 mph - N/A   Clear
6:55 AM 69.8 °F 53.6 °F 56% 30.08 in 10.0 mi NNW 17.3 mph - N/A   Clear
7:15 AM 69.8 °F 55.4 °F 60% 30.09 in 10.0 mi NNW 17.3 mph - N/A   Clear
7:35 AM 69.8 °F 55.4 °F 60% 30.10 in 10.0 mi NNW 17.3 mph - N/A   Clear
7:55 AM 69.8 °F 57.2 °F 64% 30.10 in 10.0 mi NNW 13.8 mph - N/A   Clear
8:15 AM 69.8 °F 57.2 °F 64% 30.11 in 10.0 mi NNW 16.1 mph - N/A   Clear
8:35 AM 69.8 °F 57.2 °F 64% 30.11 in 10.0 mi NNW 18.4 mph - N/A   Clear
8:55 AM 71.6 °F 57.2 °F 60% 30.12 in 10.0 mi NNW 15.0 mph - N/A   Clear
9:15 AM 71.6 °F 57.2 °F 60% 30.12 in 10.0 mi NNW 15.0 mph - N/A   Clear
9:35 AM 71.6 °F 59.0 °F 64% 30.13 in 10.0 mi NNW 15.0 mph - N/A   Clear
9:55 AM 71.6 °F 59.0 °F 64% 30.14 in 10.0 mi NNW 15.0 mph - N/A   Clear
10:15 AM 71.6 °F 59.0 °F 64% 30.14 in 10.0 mi NNW 13.8 mph - N/A   Clear
10:35 AM 71.6 °F 59.0 °F 64% 30.15 in 10.0 mi NNW 11.5 mph - N/A   Clear
10:55 AM 71.6 °F 55.4 °F 57% 30.15 in 10.0 mi NNW 12.7 mph - N/A   Clear
11:15 AM 71.6 °F 55.4 °F 57% 30.16 in 10.0 mi NNW 12.7 mph - N/A   Clear
11:35 AM 71.6 °F 55.4 °F 57% 30.16 in 10.0 mi NNW 12.7 mph - N/A   Clear
11:55 AM 71.6 °F 55.4 °F 57% 30.16 in 10.0 mi NNW 12.7 mph - N/A   Clear
12:15 PM 71.6 °F 55.4 °F 57% 30.16 in 10.0 mi NW 11.5 mph - N/A   Clear
12:35 PM 71.6 °F 53.6 °F 53% 30.15 in 10.0 mi NNW 9.2 mph - N/A   Clear
12:55 PM 71.6 °F 55.4 °F 57% 30.16 in 10.0 mi NW 9.2 mph - N/A   Clear
1:15 PM 71.6 °F 53.6 °F 53% 30.16 in 10.0 mi NW 8.1 mph - N/A   Clear
1:35 PM 71.6 °F 55.4 °F 57% 30.15 in 10.0 mi NW 6.9 mph - N/A   Clear
1:55 PM 71.6 °F 55.4 °F 57% 30.15 in 10.0 mi NW 8.1 mph - N/A   Clear
2:15 PM 71.6 °F 51.8 °F 50% 30.15 in 10.0 mi NW 6.9 mph - N/A   Clear
2:35 PM 71.6 °F 51.8 °F 50% 30.14 in 10.0 mi WNW 6.9 mph - N/A   Clear
2:55 PM 73.4 °F 51.8 °F 47% 30.14 in 10.0 mi WNW 8.1 mph - N/A   Clear
3:15 PM 73.4 °F 50.0 °F 44% 30.13 in 10.0 mi WNW 6.9 mph - N/A   Clear
3:35 PM 73.4 °F 51.8 °F 47% 30.13 in 10.0 mi West 5.8 mph - N/A   Clear
3:55 PM 73.4 °F 51.8 °F 47% 30.12 in 10.0 mi Calm Calm - N/A   Clear
4:15 PM 73.4 °F 51.8 °F 47% 30.12 in 10.0 mi Calm Calm - N/A   Clear
4:35 PM 73.4 °F 53.6 °F 50% 30.12 in 10.0 mi SW 6.9 mph - N/A   Clear
4:55 PM 73.4 °F 57.2 °F 57% 30.12 in 10.0 mi Variable 5.8 mph - N/A   Clear
5:15 PM 73.4 °F 55.4 °F 53% 30.12 in 10.0 mi WSW 8.1 mph - N/A   Clear
5:35 PM 73.4 °F 53.6 °F 50% 30.12 in 10.0 mi WSW 9.2 mph - N/A   Clear
5:55 PM 73.4 °F 51.8 °F 47% 30.11 in 10.0 mi Variable 6.9 mph - N/A   Clear
6:15 PM 73.4 °F 53.6 °F 50% 30.11 in 10.0 mi WSW 8.1 mph - N/A   Clear
6:35 PM 73.4 °F 55.4 °F 53% 30.11 in 10.0 mi Variable 6.9 mph - N/A   Clear
6:55 PM 73.4 °F 55.4 °F 53% 30.11 in 10.0 mi WSW 8.1 mph - N/A   Clear
7:15 PM 73.4 °F 55.4 °F 53% 30.12 in 10.0 mi West 10.4 mph - N/A   Clear
7:35 PM 73.4 °F 57.2 °F 57% 30.12 in 10.0 mi WSW 9.2 mph - N/A   Clear
7:55 PM 73.4 °F 57.2 °F 57% 30.13 in 10.0 mi WSW 11.5 mph - N/A   Clear
8:15 PM 73.4 °F 59.0 °F 61% 30.13 in 10.0 mi WSW 10.4 mph - N/A   Partly Cloudy
8:35 PM 73.4 °F 59.0 °F 61% 30.13 in 10.0 mi WSW 11.5 mph - N/A   Scattered Clouds
8:55 PM 73.4 °F 60.8 °F 65% 30.14 in 10.0 mi WSW 13.8 mph - N/A   Scattered Clouds
9:15 PM 73.4 °F 59.0 °F 61% 30.14 in 10.0 mi WSW 10.4 mph - N/A   Mostly Cloudy
9:35 PM 71.6 °F 60.8 °F 69% 30.15 in 10.0 mi WSW 9.2 mph 15.0 mph N/A   Mostly Cloudy
9:55 PM 73.4 °F 60.8 °F 65% 30.16 in 10.0 mi Variable 5.8 mph 13.8 mph N/A   Mostly Cloudy
10:15 PM 71.6 °F 60.8 °F 69% 30.16 in 10.0 mi West 9.2 mph 15.0 mph N/A   Scattered Clouds
10:35 PM 71.6 °F 60.8 °F 69% 30.17 in 10.0 mi WSW 8.1 mph 16.1 mph N/A   Mostly Cloudy
10:55 PM 71.6 °F 60.8 °F 69% 30.17 in 10.0 mi WSW 6.9 mph 13.8 mph N/A   Mostly Cloudy
11:15 PM 71.6 °F 60.8 °F 69% 30.18 in 10.0 mi West 8.1 mph - N/A   Mostly Cloudy
11:35 PM 71.6 °F 60.8 °F 69% 30.18 in 10.0 mi WSW 10.4 mph - N/A   Scattered Clouds
11:55 PM 71.6 °F 60.8 °F 69% 30.18 in 10.0 mi WSW 9.2 mph 15.0 mph N/A   Scattered Clouds